Regional Weather Roundup
Issued by NWS Green Bay, WI

Home | Current Version | Previous Version | Graphics & Text | Print | Product List | Glossary Off
Versions: 1 2 3 4 5 6 7 8 9 10 11 12 13 14 15 16 17 18 19 20 21 22 23 24 25 26 27 28 29 30 31 32 33 34 35 36 37 38 39 40 41 42 43 44 45 46 47 48 49 50

000
ASUS43 KGRB 150011
RWRGRB

NORTH-CENTRAL AND NORTHEAST WISCONSIN REGIONAL WEATHER ROUNDUP
NATIONAL WEATHER SERVICE GREEN BAY WI
600 PM CST THU DEC 14 2017

WIZ005-009-010>012-018-019-150100-
NORTH CENTRAL WISCONSIN

CITY           SKY/WX    TMP DP  RH WIND       PRES   REMARKS
IRONWOOD       FLURRIES  16  12  84 SW7       29.92F WCI   6
MANITOWISH WTR LGT SNOW  15  15 100 CALM      29.89S
ARBOR VITAE    FLURRIES  17  15  91 CALM      29.88F
EAGLE RIVER    FLURRIES  15  10  83 CALM      29.88F
LAND O LAKES   CLOUDY    15  11  87 CALM      29.90S
RHINELANDER    FLURRIES  18  15  88 W9        29.90F WCI   7
PHILLIPS       FLURRIES  17  15  90 W6        29.91S WCI   9
ANTIGO         LGT SNOW  17  14  90 W6        29.93S WCI   8
TOMAHAWK       LGT SNOW  17  15  89 CALM      29.92F
MERRILL        FLURRIES  19  16  89 SW3       29.95S
$$

WIZ013-073-150100-
NORTHEAST WISCONSIN

CITY           SKY/WX    TMP DP  RH WIND       PRES   REMARKS
IRON MOUNTAIN  CLOUDY    17   9  70 W5        29.92R WCI  10
MARINETTE      CLOUDY    20  13  74 CALM      30.00S
OCONTO         CLOUDY    21  16  81 CALM      29.99F
$$

WIZ017-030-035>037-045-150100-
CENTRAL WISCONSIN

CITY           SKY/WX    TMP DP  RH WIND       PRES   REMARKS
MEDFORD        FLURRIES  18  15  88 W6        29.93S
WAUSAU         CLOUDY    18  15  88 SW5       29.94S
MOSINEE        CLOUDY    18  16  93 SW5       29.96S
MARSHFIELD     CLOUDY    19  14  81 W5        29.95R
WISC RAPIDS    CLOUDY    21  12  68 SW5       29.99S
STEVENS POINT  CLOUDY    19  13  79 CALM      29.98R
WAUPACA        CLOUDY    24  16  71 CALM      29.99F
SHAWANO        CLOUDY    23  17  77 CALM      29.98S
CLINTONVILLE   NOT AVBL
WAUTOMA        CLOUDY    21  13  71 SW7       30.01S
$$

WIZ038-039-048-051-150100-
FOX VALLEY

CITY           SKY/WX    TMP DP  RH WIND       PRES   REMARKS
NWS GREEN BAY  CLOUDY    21  13  71 SW5       30.00S
APPLETON       CLOUDY    21  10  63 W5        29.98S
OSHKOSH        CLOUDY    21  13  71 CALM      30.00S
FOND DU LAC    CLOUDY    21  10  62 SW6       30.02S
$$

WIZ022-050-052-150100-
EAST CENTRAL WISCONSIN

CITY           SKY/WX    TMP DP  RH WIND       PRES   REMARKS
EPHRAIM        CLOUDY    21  12  68 W6G17     29.96S
WASHINGTON ISL CLOUDY    22  12  66 W6        29.96F
STURGEON BAY   FLURRIES  19  15  84 SW6       29.99S
MANITOWOC      CLOUDY    16  10  77 SW5       30.02  WCI   9
SHEBOYGAN      PTCLDY    14   9  80 CALM      30.02S
$$

LMZ563-521-522-541>543-150100-
LAKESHORE

STATION/POSITION TIME  TEMP    WIND        PRES    VSBY  WAVE
                       AIR SEA DIR/SP/G                  HT/PER
                 (UTC) (F)     (DEG/KT/KT) (MB)    (MI)  (FT/S)
SHEBOYGAN LKSHOR 0000   20     240/  8/ 10 1018.1S
KEWAUNEE LKSHORE 2348   19     230/  3/  4 1015.3F
NORTHPORT PIER   2357   22     250/  2/ 14 1015.2S
MENOMINEE LKSHOR 2348   22     260/  5/  6 1015.2F
$$



USA.gov is the U.S. government's official web portal to all federal, state and local government web resources and services.